TimeCET,TemperatureF,Dew PointF,Humidity,Sea Level PressureIn,VisibilityMPH,Wind Direction,Wind SpeedMPH,Gust SpeedMPH,PrecipitationIn,Events,Conditions,WindDirDegrees,DateUTC
12:25 AM,30.2,30.2,100,30.18,1.7,East,2.3,-,N/A,,Mostly Cloudy,100,2013-02-17 23:25:00
12:55 AM,30.2,30.2,100,30.18,1.2,East,2.3,-,N/A,,Mist,100,2013-02-17 23:55:00
1:25 AM,28.4,28.4,100,30.18,1.6,East,2.3,-,N/A,,Partly Cloudy,90,2013-02-18 00:25:00
1:55 AM,28.4,26.6,93,30.18,0.5,East,1.2,-,N/A,Fog,Light Freezing Fog,90,2013-02-18 00:55:00
2:25 AM,28.4,26.6,93,30.18,1.5,NE,2.3,-,N/A,,Mostly Cloudy,50,2013-02-18 01:25:00
2:34 AM,28.4,28.4,100,30.18,0.9,ENE,2.3,-,N/A,,Scattered Clouds,60,2013-02-18 01:34:00
2:38 AM,28.4,28.4,100,30.18,1.0,ENE,2.3,-,N/A,,Partly Cloudy,70,2013-02-18 01:38:00
2:51 AM,26.6,26.6,100,30.18,1.2,ENE,2.3,-,N/A,,Mist,70,2013-02-18 01:51:00
2:55 AM,28.4,26.6,93,30.18,1.4,ENE,2.3,-,N/A,,Mist,70,2013-02-18 01:55:00
3:01 AM,26.6,26.6,100,30.18,1.4,ENE,2.3,-,N/A,,Mist,60,2013-02-18 02:01:00
3:05 AM,26.6,26.6,100,30.18,0.8,ENE,1.2,-,N/A,,Mist,60,2013-02-18 02:05:00
3:11 AM,26.6,26.6,100,30.18,0.6,ENE,1.2,-,N/A,,Mist,70,2013-02-18 02:11:00
3:25 AM,26.6,26.6,100,30.18,0.8,East,1.2,-,N/A,,Mist,100,2013-02-18 02:25:00
3:31 AM,26.6,26.6,100,30.18,0.4,ESE,1.2,-,N/A,Fog,Light Freezing Fog,110,2013-02-18 02:31:00
3:55 AM,24.8,24.8,100,30.18,1.0,SSE,1.2,-,N/A,,Mostly Cloudy,150,2013-02-18 02:55:00
4:08 AM,24.8,24.8,100,30.18,1.0,SSE,1.2,-,N/A,,Mostly Cloudy,150,2013-02-18 03:08:00
4:17 AM,24.8,24.8,100,30.15,0.9,SSE,1.2,-,N/A,,Mostly Cloudy,150,2013-02-18 03:17:00
4:25 AM,24.8,24.8,100,30.18,0.5,SSE,1.2,-,N/A,Fog,Light Freezing Fog,150,2013-02-18 03:25:00
4:27 AM,24.8,24.8,100,30.18,1.3,SSE,1.2,-,N/A,,Mostly Cloudy,150,2013-02-18 03:27:00
4:33 AM,24.8,24.8,100,30.18,0.9,SSE,1.2,-,N/A,,Scattered Clouds,150,2013-02-18 03:33:00
4:37 AM,24.8,24.8,100,30.18,1.2,SSE,1.2,-,N/A,,Scattered Clouds,150,2013-02-18 03:37:00
4:49 AM,26.6,26.6,100,30.15,1.4,SSE,2.3,-,N/A,,Overcast,150,2013-02-18 03:49:00
4:55 AM,26.6,26.6,100,30.15,1.2,SSE,1.2,-,N/A,,Overcast,150,2013-02-18 03:55:00
5:09 AM,26.6,26.6,100,30.15,1.3,SSE,1.2,-,N/A,,Overcast,150,2013-02-18 04:09:00
5:13 AM,26.6,26.6,100,30.15,0.4,SSE,1.2,-,N/A,Fog,Light Freezing Fog,150,2013-02-18 04:13:00
5:17 AM,26.6,24.8,93,30.15,0.8,SSE,1.2,-,N/A,,Mist,150,2013-02-18 04:17:00
5:21 AM,24.8,24.8,100,30.15,-9999.0,SSE,1.2,-,N/A,Fog,Light Freezing Fog,150,2013-02-18 04:21:00
5:25 AM,24.8,24.8,100,30.15,0.3,SSE,1.2,-,N/A,Fog,Light Freezing Fog,150,2013-02-18 04:25:00
5:34 AM,24.8,24.8,100,30.15,0.6,SSE,2.3,-,N/A,Fog,Light Freezing Fog,150,2013-02-18 04:34:00
5:39 AM,24.8,24.8,100,30.15,0.4,SSE,2.3,-,N/A,Fog,Light Freezing Fog,150,2013-02-18 04:39:00
5:43 AM,24.8,24.8,100,30.15,0.5,SSE,2.3,-,N/A,Fog,Light Freezing Fog,150,2013-02-18 04:43:00
5:47 AM,24.8,24.8,100,30.15,0.4,SSE,1.2,-,N/A,Fog,Light Freezing Fog,150,2013-02-18 04:47:00
5:55 AM,24.8,24.8,100,30.15,1.4,SSE,1.2,-,N/A,,Overcast,150,2013-02-18 04:55:00
6:08 AM,24.8,24.8,100,30.15,1.4,SSE,1.2,-,N/A,,Overcast,150,2013-02-18 05:08:00
6:25 AM,24.8,24.8,100,30.15,1.2,SSE,1.2,-,N/A,,Overcast,150,2013-02-18 05:25:00
6:38 AM,24.8,24.8,100,30.15,0.8,SSE,1.2,-,N/A,,Mostly Cloudy,150,2013-02-18 05:38:00
6:55 AM,24.8,24.8,100,30.15,1.4,SSE,1.2,-,N/A,,Overcast,150,2013-02-18 05:55:00
7:05 AM,24.8,24.8,100,30.15,1.4,SSE,1.2,-,N/A,,Mostly Cloudy,150,2013-02-18 06:05:00
7:25 AM,24.8,24.8,100,30.15,1.7,SSE,1.2,-,N/A,,Mist,150,2013-02-18 06:25:00
7:55 AM,24.8,24.8,100,30.15,1.3,SSE,1.2,-,N/A,,Mist,150,2013-02-18 06:55:00
8:08 AM,26.6,24.8,93,30.18,0.9,SSE,1.2,-,N/A,,Mist,150,2013-02-18 07:08:00
8:12 AM,26.6,24.8,93,30.18,1.1,SSE,1.2,-,N/A,,Mist,150,2013-02-18 07:12:00
8:25 AM,26.6,26.6,100,30.18,1.2,SSE,2.3,-,N/A,,Scattered Clouds,150,2013-02-18 07:25:00
8:32 AM,26.6,26.6,100,30.18,1.7,SSE,2.3,-,N/A,,Mist,150,2013-02-18 07:32:00
8:33 AM,26.6,26.6,100,30.18,1.7,SSE,2.3,-,N/A,,Mist,150,2013-02-18 07:33:00
8:55 AM,28.4,28.4,100,30.18,1.7,SE,2.3,-,N/A,,Partly Cloudy,140,2013-02-18 07:55:00
9:05 AM,30.2,28.4,93,30.18,1.8,East,1.2,-,N/A,,Partly Cloudy,90,2013-02-18 08:05:00
9:11 AM,30.2,30.2,100,30.18,-9999.0,East,2.3,-,N/A,,Scattered Clouds,100,2013-02-18 08:11:00
9:21 AM,32.0,32.0,100,30.18,2.2,ESE,2.3,-,N/A,,Mostly Cloudy,110,2013-02-18 08:21:00
9:25 AM,32.0,32.0,100,30.18,-9999.0,ESE,2.3,-,N/A,,Scattered Clouds,110,2013-02-18 08:25:00
9:29 AM,32.0,32.0,100,30.18,-9999.0,ESE,2.3,-,N/A,,Partly Cloudy,110,2013-02-18 08:29:00
9:42 AM,33.8,33.8,100,30.18,-9999.0,ESE,2.3,-,N/A,,Mostly Cloudy,120,2013-02-18 08:42:00
9:49 AM,33.8,33.8,100,30.18,3.1,SSE,1.2,-,N/A,,Mostly Cloudy,150,2013-02-18 08:49:00
9:55 AM,33.8,33.8,100,30.18,3.1,SE,2.3,-,N/A,,Partly Cloudy,140,2013-02-18 08:55:00
10:09 AM,33.8,33.8,100,30.18,4.3,SE,5.8,-,N/A,,Partly Cloudy,130,2013-02-18 09:09:00
10:17 AM,35.6,35.6,100,30.18,5.0,SE,4.6,-,N/A,,Mist,140,2013-02-18 09:17:00
10:25 AM,35.6,33.8,93,30.18,4.3,SE,4.6,-,N/A,,Mist,140,2013-02-18 09:25:00
10:26 AM,35.6,33.8,93,30.18,5.0,SE,4.6,-,N/A,,Mist,140,2013-02-18 09:26:00
10:31 AM,35.6,33.8,93,30.18,5.0,SE,3.5,-,N/A,,Mist,140,2013-02-18 09:31:00
10:42 AM,37.4,33.8,87,30.18,5.6,SE,3.5,-,N/A,,Partly Cloudy,130,2013-02-18 09:42:00
10:55 AM,37.4,33.8,87,30.18,6.2,SE,4.6,-,N/A,,Partly Cloudy,140,2013-02-18 09:55:00
11:25 AM,39.2,33.8,81,30.18,6.2,SE,4.6,-,N/A,,Unknown,140,2013-02-18 10:25:00
11:55 AM,41.0,33.8,76,30.18,6.2,SE,5.8,-,N/A,,Partly Cloudy,140,2013-02-18 10:55:00
12:25 PM,42.8,33.8,70,30.18,6.2,SE,3.5,-,N/A,,Scattered Clouds,130,2013-02-18 11:25:00
12:55 PM,42.8,30.2,61,30.18,6.2,SE,4.6,-,N/A,,Scattered Clouds,130,2013-02-18 11:55:00
1:25 PM,44.6,30.2,57,30.18,6.2,SSE,5.8,-,N/A,,Unknown,150,2013-02-18 12:25:00
1:55 PM,44.6,30.2,57,30.15,6.2,SSE,3.5,-,N/A,,Partly Cloudy,160,2013-02-18 12:55:00
2:25 PM,44.6,28.4,53,30.15,6.2,East,4.6,-,N/A,,Partly Cloudy,100,2013-02-18 13:25:00
2:55 PM,44.6,28.4,53,30.15,6.2,ENE,2.3,-,N/A,,Unknown,70,2013-02-18 13:55:00
3:25 PM,44.6,30.2,57,30.15,6.2,South,3.5,-,N/A,,Unknown,180,2013-02-18 14:25:00
3:55 PM,44.6,30.2,57,30.15,6.2,ESE,2.3,-,N/A,,Partly Cloudy,120,2013-02-18 14:55:00
4:25 PM,44.6,30.2,57,30.15,6.2,East,1.2,-,N/A,,Unknown,100,2013-02-18 15:25:00
4:55 PM,42.8,30.2,61,30.15,6.2,ENE,3.5,-,N/A,,Partly Cloudy,70,2013-02-18 15:55:00
5:25 PM,41.0,30.2,65,30.12,6.2,ENE,2.3,-,N/A,,Partly Cloudy,70,2013-02-18 16:25:00
5:55 PM,39.2,28.4,65,30.15,6.2,East,2.3,-,N/A,,Partly Cloudy,90,2013-02-18 16:55:00
6:25 PM,37.4,28.4,70,30.15,6.2,SE,3.5,-,N/A,,Partly Cloudy,130,2013-02-18 17:25:00
6:55 PM,35.6,28.4,75,30.15,6.2,SE,2.3,-,N/A,,Partly Cloudy,140,2013-02-18 17:55:00
7:25 PM,33.8,28.4,81,30.12,6.2,ESE,2.3,-,N/A,,Unknown,120,2013-02-18 18:25:00
7:55 PM,33.8,28.4,81,30.12,6.2,South,1.2,-,N/A,,Partly Cloudy,190,2013-02-18 18:55:00
8:25 PM,32.0,28.4,87,30.12,6.2,SSE,1.2,-,N/A,,Unknown,160,2013-02-18 19:25:00
8:55 PM,32.0,28.4,87,30.12,6.2,South,2.3,-,N/A,,Unknown,180,2013-02-18 19:55:00
9:25 PM,32.0,28.4,87,30.12,6.2,SW,1.2,-,N/A,,Partly Cloudy,220,2013-02-18 20:25:00
9:55 PM,32.0,28.4,87,30.12,6.2,SSW,1.2,-,N/A,,Partly Cloudy,200,2013-02-18 20:55:00
10:25 PM,32.0,28.4,87,30.12,5.6,SSW,2.3,-,N/A,,Mostly Cloudy,210,2013-02-18 21:25:00
10:55 PM,30.2,28.4,93,30.12,5.0,SSW,1.2,-,N/A,,Mist,210,2013-02-18 21:55:00
11:13 PM,30.2,26.6,86,30.12,5.6,SSW,1.2,-,N/A,,Mist,210,2013-02-18 22:13:00
11:25 PM,30.2,26.6,86,30.12,4.3,SW,2.3,-,N/A,,Mist,220,2013-02-18 22:25:00
11:44 PM,28.4,26.6,93,30.12,4.3,SSW,1.2,-,N/A,,Mist,210,2013-02-18 22:44:00
11:55 PM,28.4,26.6,93,30.12,3.1,SW,1.2,-,N/A,,Mist,230,2013-02-18 22:55:00